Time,TemperatureF,DewpointF,PressureIn,WindDirection,WindDirectionDegrees,WindSpeedMPH,WindSpeedGustMPH,Humidity,HourlyPrecipIn,Conditions,Clouds,dailyrainin,SoftwareType,DateUTC
2013-01-26 00:01:00,42.3,39.0,29.98,SSW,196,1.0,4.0,88,0.00,,,0.03,Wunderground v.1.15,2013-01-26 08:01:00,
2013-01-26 00:06:00,42.2,38.9,29.98,South,188,3.0,4.0,88,0.00,,,0.03,Wunderground v.1.15,2013-01-26 08:06:00,
2013-01-26 00:12:00,42.1,38.8,29.98,SSW,192,0.0,1.0,88,0.00,,,0.03,Wunderground v.1.15,2013-01-26 08:12:00,
2013-01-26 00:18:00,42.1,38.8,29.98,South,191,0.0,5.0,88,0.00,,,0.03,Wunderground v.1.15,2013-01-26 08:18:00,
2013-01-26 00:24:00,42.0,38.7,29.98,South,191,0.0,0.0,88,0.00,,,0.03,Wunderground v.1.15,2013-01-26 08:24:00,
2013-01-26 00:30:00,42.0,38.7,29.98,South,191,0.0,0.0,88,0.00,,,0.03,Wunderground v.1.15,2013-01-26 08:30:00,
2013-01-26 00:35:00,41.9,38.9,29.98,South,191,0.0,0.0,89,0.00,,,0.03,Wunderground v.1.15,2013-01-26 08:35:00,
2013-01-26 00:41:00,41.8,38.8,29.98,South,191,0.0,0.0,89,0.00,,,0.03,Wunderground v.1.15,2013-01-26 08:41:00,
2013-01-26 00:46:00,41.8,38.8,29.98,South,191,0.0,0.0,89,0.00,,,0.03,Wunderground v.1.15,2013-01-26 08:46:00,
2013-01-26 00:52:00,41.7,38.7,29.98,South,191,0.0,0.0,89,0.00,,,0.03,Wunderground v.1.15,2013-01-26 08:52:00,
2013-01-26 00:57:00,41.7,39.0,29.98,South,191,0.0,0.0,90,0.00,,,0.03,Wunderground v.1.15,2013-01-26 08:57:00,
2013-01-26 01:03:00,41.7,39.0,29.98,South,191,0.0,0.0,90,0.00,,,0.03,Wunderground v.1.15,2013-01-26 09:03:00,
2013-01-26 01:08:00,41.6,38.9,29.98,South,191,0.0,0.0,90,0.00,,,0.03,Wunderground v.1.15,2013-01-26 09:08:00,
2013-01-26 01:14:00,41.6,38.9,29.98,South,191,1.0,1.0,90,0.00,,,0.03,Wunderground v.1.15,2013-01-26 09:14:00,
2013-01-26 01:19:00,41.6,38.9,29.98,South,191,0.0,0.0,90,0.00,,,0.03,Wunderground v.1.15,2013-01-26 09:19:00,
2013-01-26 01:25:00,41.6,38.9,29.97,South,191,0.0,0.0,90,0.00,,,0.03,Wunderground v.1.15,2013-01-26 09:25:00,
2013-01-26 01:30:00,41.8,39.1,29.97,South,190,0.0,0.0,90,0.00,,,0.03,Wunderground v.1.15,2013-01-26 09:30:00,
2013-01-26 01:36:00,41.8,39.1,29.97,South,190,0.0,0.0,90,0.00,,,0.03,Wunderground v.1.15,2013-01-26 09:36:00,
2013-01-26 01:42:00,41.9,39.5,29.97,South,178,3.0,3.0,91,0.00,,,0.03,Wunderground v.1.15,2013-01-26 09:42:00,
2013-01-26 01:47:00,41.9,39.5,29.97,SSE,150,0.0,4.0,91,0.00,,,0.03,Wunderground v.1.15,2013-01-26 09:47:00,
2013-01-26 01:53:00,41.8,39.1,29.97,SSE,148,0.0,2.0,90,0.00,,,0.03,Wunderground v.1.15,2013-01-26 09:53:00,
2013-01-26 01:58:00,41.8,39.1,29.97,SSE,148,0.0,2.0,90,0.00,,,0.03,Wunderground v.1.15,2013-01-26 09:58:00,
2013-01-26 02:03:00,41.8,39.1,29.97,SSE,148,0.0,0.0,90,0.00,,,0.03,Wunderground v.1.15,2013-01-26 10:03:00,
2013-01-26 02:08:00,41.9,39.5,29.97,SSE,148,0.0,0.0,91,0.00,,,0.03,Wunderground v.1.15,2013-01-26 10:08:00,
2013-01-26 02:13:00,41.9,39.5,29.97,SSE,148,0.0,4.0,91,0.00,,,0.03,Wunderground v.1.15,2013-01-26 10:13:00,
2013-01-26 02:18:00,41.9,39.5,29.97,SSE,148,0.0,4.0,91,0.00,,,0.03,Wunderground v.1.15,2013-01-26 10:18:00,
2013-01-26 02:24:00,41.9,39.2,29.97,SSE,148,0.0,0.0,90,0.00,,,0.00,Wunderground v.1.15,2013-01-26 10:24:00,
2013-01-26 02:29:00,41.9,39.2,29.97,SSE,148,0.0,0.0,90,0.00,,,0.00,Wunderground v.1.15,2013-01-26 10:29:00,
2013-01-26 02:34:00,42.0,39.3,29.97,SSE,148,0.0,0.0,90,0.00,,,0.00,Wunderground v.1.15,2013-01-26 10:34:00,
2013-01-26 02:39:00,42.0,39.3,29.97,SSE,148,0.0,0.0,90,0.00,,,0.00,Wunderground v.1.15,2013-01-26 10:39:00,
2013-01-26 02:44:00,42.1,39.4,29.97,SSE,148,0.0,1.0,90,0.00,,,0.00,Wunderground v.1.15,2013-01-26 10:44:00,
2013-01-26 02:49:00,42.1,39.4,29.97,SSE,148,0.0,1.0,90,0.00,,,0.00,Wunderground v.1.15,2013-01-26 10:49:00,
2013-01-26 02:54:00,42.1,39.4,29.97,SSE,148,0.0,0.0,90,0.00,,,0.00,Wunderground v.1.15,2013-01-26 10:54:00,
2013-01-26 02:59:00,42.2,39.5,29.96,SSE,148,0.0,0.0,90,0.00,,,0.00,Wunderground v.1.15,2013-01-26 10:59:00,
2013-01-26 03:04:00,42.2,39.5,29.96,SSE,148,0.0,0.0,90,0.00,,,0.00,Wunderground v.1.15,2013-01-26 11:04:00,
2013-01-26 03:09:00,42.2,39.5,29.96,SSE,148,0.0,3.0,90,0.00,,,0.00,Wunderground v.1.15,2013-01-26 11:09:00,
2013-01-26 03:14:00,42.2,39.5,29.96,SSE,148,0.0,0.0,90,0.00,,,0.00,Wunderground v.1.15,2013-01-26 11:14:00,
2013-01-26 03:19:00,42.3,39.6,29.96,SSE,148,0.0,0.0,90,0.00,,,0.00,Wunderground v.1.15,2013-01-26 11:19:00,
2013-01-26 03:24:00,42.3,39.3,29.96,SSE,148,0.0,0.0,89,0.00,,,0.00,Wunderground v.1.15,2013-01-26 11:24:00,
2013-01-26 03:29:00,42.3,39.3,29.96,SSE,148,0.0,0.0,89,0.00,,,0.00,Wunderground v.1.15,2013-01-26 11:29:00,
2013-01-26 03:34:00,42.4,39.4,29.96,SSE,148,0.0,0.0,89,0.00,,,0.00,Wunderground v.1.15,2013-01-26 11:34:00,
2013-01-26 03:39:00,42.4,39.4,29.96,SE,146,0.0,0.0,89,0.00,,,0.00,Wunderground v.1.15,2013-01-26 11:39:00,
2013-01-26 03:44:00,42.3,39.3,29.96,SE,145,0.0,3.0,89,0.00,,,0.00,Wunderground v.1.15,2013-01-26 11:44:00,
2013-01-26 03:49:00,42.2,39.2,29.96,SE,138,0.0,5.0,89,0.00,,,0.00,Wunderground v.1.15,2013-01-26 11:49:00,
2013-01-26 03:54:00,42.0,39.0,29.96,SE,127,1.0,4.0,89,0.00,,,0.00,Wunderground v.1.15,2013-01-26 11:54:00,
2013-01-26 03:59:00,41.8,38.8,29.96,ESE,123,0.0,5.0,89,0.00,,,0.00,Wunderground v.1.15,2013-01-26 11:59:00,
2013-01-26 04:04:00,41.6,38.6,29.95,ESE,120,0.0,4.0,89,0.00,,,0.00,Wunderground v.1.15,2013-01-26 12:04:00,
2013-01-26 04:09:00,41.5,38.5,29.95,ESE,119,0.0,1.0,89,0.00,,,0.00,Wunderground v.1.15,2013-01-26 12:09:00,
2013-01-26 04:14:00,41.4,38.4,29.96,ESE,119,0.0,3.0,89,0.00,,,0.00,Wunderground v.1.15,2013-01-26 12:14:00,
2013-01-26 04:19:00,41.3,38.3,29.95,ESE,119,2.0,2.0,89,0.00,,,0.00,Wunderground v.1.15,2013-01-26 12:19:00,
2013-01-26 04:24:00,41.2,37.9,29.95,ESE,118,0.0,3.0,88,0.00,,,0.00,Wunderground v.1.15,2013-01-26 12:24:00,
2013-01-26 04:29:00,41.1,37.8,29.96,ESE,118,0.0,1.0,88,0.00,,,0.00,Wunderground v.1.15,2013-01-26 12:29:00,
2013-01-26 04:34:00,41.1,37.8,29.96,ESE,119,0.0,1.0,88,0.00,,,0.00,Wunderground v.1.15,2013-01-26 12:34:00,
2013-01-26 04:39:00,41.0,38.0,29.96,SE,124,0.0,0.0,89,0.00,,,0.00,Wunderground v.1.15,2013-01-26 12:39:00,
2013-01-26 04:44:00,41.1,38.1,29.96,SE,128,0.0,2.0,89,0.00,,,0.01,Wunderground v.1.15,2013-01-26 12:44:00,
2013-01-26 04:49:00,41.1,38.1,29.96,SE,142,0.0,1.0,89,0.00,,,0.01,Wunderground v.1.15,2013-01-26 12:49:00,
2013-01-26 04:54:00,41.2,38.5,29.96,SE,146,0.0,2.0,90,0.00,,,0.01,Wunderground v.1.15,2013-01-26 12:54:00,
2013-01-26 04:59:00,41.3,38.6,29.95,SE,146,0.0,0.0,90,0.05,,,0.02,Wunderground v.1.15,2013-01-26 12:59:00,
2013-01-26 05:04:00,41.3,38.6,29.95,SE,146,0.0,0.0,90,0.05,,,0.02,Wunderground v.1.15,2013-01-26 13:04:00,
2013-01-26 05:09:00,41.3,38.6,29.95,SE,146,0.0,0.0,90,0.05,,,0.03,Wunderground v.1.15,2013-01-26 13:09:00,
2013-01-26 05:14:00,41.2,38.5,29.95,SE,146,0.0,3.0,90,0.05,,,0.03,Wunderground v.1.15,2013-01-26 13:14:00,
2013-01-26 05:19:00,41.1,38.4,29.95,SE,146,0.0,0.0,90,0.05,,,0.04,Wunderground v.1.15,2013-01-26 13:19:00,
2013-01-26 05:24:00,41.1,38.4,29.95,SE,146,0.0,1.0,90,0.05,,,0.04,Wunderground v.1.15,2013-01-26 13:24:00,
2013-01-26 05:29:00,41.0,38.6,29.95,SE,146,0.0,0.0,91,0.05,,,0.04,Wunderground v.1.15,2013-01-26 13:29:00,
2013-01-26 05:34:00,40.9,38.5,29.95,SE,145,0.0,2.0,91,0.04,,,0.05,Wunderground v.1.15,2013-01-26 13:34:00,
2013-01-26 05:39:00,40.8,38.4,29.95,SE,146,0.0,0.0,91,0.04,,,0.05,Wunderground v.1.15,2013-01-26 13:39:00,
2013-01-26 05:44:00,40.7,38.3,29.95,SE,146,0.0,0.0,91,0.05,,,0.06,Wunderground v.1.15,2013-01-26 13:44:00,
2013-01-26 05:49:00,40.7,38.3,29.95,SE,146,0.0,0.0,91,0.05,,,0.06,Wunderground v.1.15,2013-01-26 13:49:00,
2013-01-26 05:54:00,40.7,38.3,29.95,SE,146,0.0,0.0,91,0.06,,,0.07,Wunderground v.1.15,2013-01-26 13:54:00,
2013-01-26 05:59:00,40.7,38.3,29.95,SSE,147,0.0,0.0,91,0.06,,,0.07,Wunderground v.1.15,2013-01-26 13:59:00,
2013-01-26 06:04:00,40.7,38.3,29.96,SSE,148,0.0,2.0,91,0.08,,,0.08,Wunderground v.1.15,2013-01-26 14:04:00,
2013-01-26 06:09:00,40.6,38.2,29.96,SSE,154,0.0,0.0,91,0.17,,,0.10,Wunderground v.1.15,2013-01-26 14:09:00,
2013-01-26 06:14:00,40.6,38.2,29.96,SSE,155,0.0,2.0,91,0.16,,,0.11,Wunderground v.1.15,2013-01-26 14:14:00,
2013-01-26 06:19:00,40.6,38.2,29.95,SSE,159,0.0,2.0,91,0.21,,,0.13,Wunderground v.1.15,2013-01-26 14:19:00,
2013-01-26 06:24:00,40.5,38.4,29.95,SSE,160,0.0,2.0,92,0.10,,,0.13,Wunderground v.1.15,2013-01-26 14:24:00,
2013-01-26 06:29:00,40.5,38.4,29.95,SSE,160,0.0,0.0,92,0.06,,,0.14,Wunderground v.1.15,2013-01-26 14:29:00,
2013-01-26 06:35:00,40.5,38.4,29.95,SSE,160,0.0,0.0,92,0.06,,,0.14,Wunderground v.1.15,2013-01-26 14:35:00,
2013-01-26 06:40:00,40.5,38.4,29.95,SE,146,1.0,2.0,92,0.05,,,0.14,Wunderground v.1.15,2013-01-26 14:40:00,
2013-01-26 06:45:00,40.5,38.4,29.95,SE,146,0.0,2.0,92,0.04,,,0.14,Wunderground v.1.15,2013-01-26 14:45:00,
2013-01-26 06:50:00,40.5,38.4,29.95,SE,144,0.0,1.0,92,0.00,,,0.14,Wunderground v.1.15,2013-01-26 14:50:00,
2013-01-26 06:55:00,40.5,38.4,29.95,SE,141,4.0,4.0,92,0.00,,,0.14,Wunderground v.1.15,2013-01-26 14:55:00,
2013-01-26 07:00:00,40.5,38.4,29.95,SE,136,3.0,3.0,92,0.00,,,0.14,Wunderground v.1.15,2013-01-26 15:00:00,
2013-01-26 07:05:00,40.5,38.4,29.95,SE,136,1.0,3.0,92,0.00,,,0.14,Wunderground v.1.15,2013-01-26 15:05:00,
2013-01-26 07:10:00,40.6,38.5,29.95,SE,140,3.0,3.0,92,0.00,,,0.14,Wunderground v.1.15,2013-01-26 15:10:00,
2013-01-26 07:15:00,40.6,38.5,29.95,SE,140,0.0,3.0,92,0.00,,,0.14,Wunderground v.1.15,2013-01-26 15:15:00,
2013-01-26 07:20:00,40.6,38.5,29.95,SE,140,0.0,2.0,92,0.00,,,0.14,Wunderground v.1.15,2013-01-26 15:20:00,
2013-01-26 07:25:00,40.6,38.5,29.95,SSE,150,0.0,4.0,92,0.00,,,0.14,Wunderground v.1.15,2013-01-26 15:25:00,
2013-01-26 07:30:00,40.6,38.5,29.96,SSE,152,0.0,4.0,92,0.00,,,0.14,Wunderground v.1.15,2013-01-26 15:30:00,
2013-01-26 07:35:00,40.5,38.4,29.95,SSE,153,0.0,5.0,92,0.00,,,0.14,Wunderground v.1.15,2013-01-26 15:35:00,
2013-01-26 07:40:00,40.6,38.5,29.96,SSE,154,0.0,1.0,92,0.00,,,0.14,Wunderground v.1.15,2013-01-26 15:40:00,
2013-01-26 07:45:00,40.6,38.5,29.96,SSE,153,3.0,3.0,92,0.00,,,0.14,Wunderground v.1.15,2013-01-26 15:45:00,
2013-01-26 07:50:00,40.6,38.5,29.96,SSE,151,1.0,4.0,92,0.00,,,0.15,Wunderground v.1.15,2013-01-26 15:50:00,
2013-01-26 07:55:00,40.6,38.5,29.96,SSE,150,0.0,4.0,92,0.00,,,0.15,Wunderground v.1.15,2013-01-26 15:55:00,
2013-01-26 08:00:00,40.5,38.4,29.96,SSE,149,0.0,3.0,92,0.00,,,0.15,Wunderground v.1.15,2013-01-26 16:00:00,
2013-01-26 08:05:00,40.5,38.4,29.96,SSE,150,0.0,3.0,92,0.00,,,0.15,Wunderground v.1.15,2013-01-26 16:05:00,
2013-01-26 08:10:00,40.5,38.4,29.96,SSE,153,3.0,4.0,92,0.00,,,0.15,Wunderground v.1.15,2013-01-26 16:10:00,
2013-01-26 08:16:00,40.5,38.4,29.96,SSE,155,1.0,4.0,92,0.00,,,0.16,Wunderground v.1.15,2013-01-26 16:16:00,
2013-01-26 08:21:00,40.5,38.4,29.96,SSE,155,1.0,2.0,92,0.00,,,0.16,Wunderground v.1.15,2013-01-26 16:21:00,
2013-01-26 08:26:00,40.5,38.4,29.97,SSE,156,3.0,4.0,92,0.05,,,0.17,Wunderground v.1.15,2013-01-26 16:26:00,
2013-01-26 08:31:00,40.5,38.4,29.97,SSE,157,1.0,4.0,92,0.05,,,0.17,Wunderground v.1.15,2013-01-26 16:31:00,
2013-01-26 08:36:00,40.5,38.4,29.97,SSE,157,0.0,4.0,92,0.06,,,0.18,Wunderground v.1.15,2013-01-26 16:36:00,
2013-01-26 08:41:00,40.5,38.4,29.96,SSE,157,0.0,1.0,92,0.06,,,0.18,Wunderground v.1.15,2013-01-26 16:41:00,
2013-01-26 08:46:00,40.6,38.5,29.97,SSE,158,0.0,3.0,92,0.06,,,0.19,Wunderground v.1.15,2013-01-26 16:46:00,
2013-01-26 08:51:00,40.6,38.5,29.97,SSE,159,1.0,1.0,92,0.06,,,0.19,Wunderground v.1.15,2013-01-26 16:51:00,
2013-01-26 08:56:00,40.7,38.6,29.97,South,172,2.0,5.0,92,0.05,,,0.20,Wunderground v.1.15,2013-01-26 16:56:00,
2013-01-26 09:01:00,40.7,38.6,29.97,SSW,205,8.0,8.0,92,0.05,,,0.20,Wunderground v.1.15,2013-01-26 17:01:00,
2013-01-26 09:06:00,40.7,38.6,29.97,SSW,196,0.0,8.0,92,0.05,,,0.20,Wunderground v.1.15,2013-01-26 17:06:00,
2013-01-26 09:11:00,40.7,38.6,29.97,South,190,2.0,5.0,92,0.04,,,0.20,Wunderground v.1.15,2013-01-26 17:11:00,
2013-01-26 09:16:00,40.8,38.7,29.98,SSW,199,0.0,6.0,92,0.00,,,0.20,Wunderground v.1.15,2013-01-26 17:16:00,
2013-01-26 09:22:00,40.8,38.7,29.98,SSW,205,0.0,4.0,92,0.00,,,0.20,Wunderground v.1.15,2013-01-26 17:22:00,
2013-01-26 09:27:00,40.9,38.8,29.98,SSW,193,3.0,4.0,92,0.00,,,0.21,Wunderground v.1.15,2013-01-26 17:27:00,
2013-01-26 09:32:00,40.9,38.8,29.98,SSW,205,0.0,1.0,92,0.00,,,0.21,Wunderground v.1.15,2013-01-26 17:32:00,
2013-01-26 09:37:00,41.0,38.9,29.98,SSW,199,3.0,6.0,92,0.05,,,0.22,Wunderground v.1.15,2013-01-26 17:37:00,
2013-01-26 09:42:00,41.1,39.0,29.98,SW,218,1.0,11.0,92,0.05,,,0.22,Wunderground v.1.15,2013-01-26 17:42:00,
2013-01-26 09:47:00,41.1,39.0,29.98,SSW,213,4.0,11.0,92,0.09,,,0.23,Wunderground v.1.15,2013-01-26 17:47:00,
2013-01-26 09:52:00,41.2,39.1,29.98,SSW,205,0.0,6.0,92,0.08,,,0.24,Wunderground v.1.15,2013-01-26 17:52:00,
2013-01-26 09:57:00,41.3,39.2,29.98,SW,228,0.0,7.0,92,0.08,,,0.24,Wunderground v.1.15,2013-01-26 17:57:00,
2013-01-26 10:02:00,41.4,39.3,29.98,SW,227,0.0,7.0,92,0.09,,,0.25,Wunderground v.1.15,2013-01-26 18:02:00,
2013-01-26 10:07:00,41.4,39.3,29.98,SE,127,6.0,13.0,92,0.07,,,0.26,Wunderground v.1.15,2013-01-26 18:07:00,
2013-01-26 10:12:00,41.6,39.2,29.98,SSW,207,3.0,10.0,91,0.07,,,0.26,Wunderground v.1.15,2013-01-26 18:12:00,
2013-01-26 10:17:00,41.7,39.5,29.98,West,259,11.0,12.0,92,0.06,,,0.27,Wunderground v.1.15,2013-01-26 18:17:00,
2013-01-26 10:22:00,41.8,39.4,29.99,SSW,200,1.0,10.0,91,0.10,,,0.27,Wunderground v.1.15,2013-01-26 18:22:00,
2013-01-26 10:27:00,41.9,39.5,29.99,South,185,2.0,11.0,91,0.10,,,0.28,Wunderground v.1.15,2013-01-26 18:27:00,
2013-01-26 10:32:00,42.0,39.6,29.99,SSW,207,6.0,7.0,91,0.10,,,0.29,Wunderground v.1.15,2013-01-26 18:32:00,
2013-01-26 10:37:00,42.0,39.6,29.99,SE,141,3.0,14.0,91,0.07,,,0.29,Wunderground v.1.15,2013-01-26 18:37:00,
2013-01-26 10:42:00,42.1,39.4,29.99,SSW,208,4.0,11.0,90,0.04,,,0.29,Wunderground v.1.15,2013-01-26 18:42:00,
2013-01-26 10:47:00,42.2,39.5,29.99,SW,227,7.0,14.0,90,0.00,,,0.29,Wunderground v.1.15,2013-01-26 18:47:00,
2013-01-26 10:52:00,42.3,39.6,29.99,SW,228,6.0,6.0,90,0.00,,,0.30,Wunderground v.1.15,2013-01-26 18:52:00,
2013-01-26 10:57:00,42.3,39.3,29.99,SW,214,6.0,12.0,89,0.00,,,0.30,Wunderground v.1.15,2013-01-26 18:57:00,
2013-01-26 11:02:00,42.4,39.4,29.99,WSW,256,6.0,11.0,89,0.00,,,0.30,Wunderground v.1.15,2013-01-26 19:02:00,
2013-01-26 11:07:00,42.4,39.4,29.99,South,182,0.0,13.0,89,0.00,,,0.30,Wunderground v.1.15,2013-01-26 19:07:00,
2013-01-26 11:12:00,42.5,39.2,29.99,NW,305,2.0,11.0,88,0.00,,,0.30,Wunderground v.1.15,2013-01-26 19:12:00,
2013-01-26 11:17:00,42.7,39.4,29.99,South,172,2.0,11.0,88,0.00,,,0.30,Wunderground v.1.15,2013-01-26 19:17:00,
2013-01-26 11:22:00,42.8,39.5,29.99,South,178,7.0,9.0,88,0.00,,,0.30,Wunderground v.1.15,2013-01-26 19:22:00,
2013-01-26 11:27:00,42.9,39.3,29.99,WSW,244,2.0,13.0,87,0.00,,,0.30,Wunderground v.1.15,2013-01-26 19:27:00,
2013-01-26 11:32:00,43.0,39.4,29.99,WSW,241,2.0,9.0,87,0.00,,,0.30,Wunderground v.1.15,2013-01-26 19:32:00,
2013-01-26 11:37:00,43.1,39.5,29.99,WNW,302,2.0,15.0,87,0.00,,,0.31,Wunderground v.1.15,2013-01-26 19:37:00,
2013-01-26 11:42:00,43.1,39.5,29.99,SW,220,4.0,10.0,87,0.00,,,0.31,Wunderground v.1.15,2013-01-26 19:42:00,
2013-01-26 11:47:00,43.1,39.5,29.99,SW,225,3.0,10.0,87,0.00,,,0.31,Wunderground v.1.15,2013-01-26 19:47:00,
2013-01-26 11:52:00,43.2,39.3,29.99,WSW,240,3.0,12.0,86,0.00,,,0.32,Wunderground v.1.15,2013-01-26 19:52:00,
2013-01-26 11:57:00,43.3,39.7,29.99,SW,229,3.0,12.0,87,0.00,,,0.32,Wunderground v.1.15,2013-01-26 19:57:00,
2013-01-26 12:02:00,43.4,39.5,29.99,SSW,193,1.0,7.0,86,0.00,,,0.32,Wunderground v.1.15,2013-01-26 20:02:00,
2013-01-26 12:07:00,43.4,39.5,29.99,SW,219,4.0,11.0,86,0.05,,,0.33,Wunderground v.1.15,2013-01-26 20:07:00,
2013-01-26 12:12:00,43.5,39.6,29.99,SW,215,1.0,6.0,86,0.05,,,0.33,Wunderground v.1.15,2013-01-26 20:12:00,
2013-01-26 12:17:00,43.5,39.6,29.98,SSW,212,5.0,12.0,86,0.05,,,0.34,Wunderground v.1.15,2013-01-26 20:17:00,
2013-01-26 12:22:00,43.6,39.7,29.99,SW,229,5.0,7.0,86,0.05,,,0.34,Wunderground v.1.15,2013-01-26 20:22:00,
2013-01-26 12:27:00,43.7,39.8,29.98,SW,221,6.0,9.0,86,0.07,,,0.35,Wunderground v.1.15,2013-01-26 20:27:00,
2013-01-26 12:32:00,43.7,39.8,29.98,WSW,242,13.0,13.0,86,0.09,,,0.36,Wunderground v.1.15,2013-01-26 20:32:00,
2013-01-26 12:37:00,43.8,39.9,29.98,SW,221,0.0,13.0,86,0.09,,,0.36,Wunderground v.1.15,2013-01-26 20:37:00,
2013-01-26 12:42:00,43.8,39.9,29.99,SSW,204,1.0,6.0,86,0.07,,,0.37,Wunderground v.1.15,2013-01-26 20:42:00,
2013-01-26 12:47:00,43.9,40.0,29.99,SW,217,0.0,7.0,86,0.12,,,0.38,Wunderground v.1.15,2013-01-26 20:47:00,
2013-01-26 12:52:00,43.9,40.3,29.98,South,171,4.0,4.0,87,0.12,,,0.39,Wunderground v.1.15,2013-01-26 20:52:00,
2013-01-26 12:57:00,43.9,40.3,29.98,WSW,239,5.0,7.0,87,0.10,,,0.39,Wunderground v.1.15,2013-01-26 20:57:00,
2013-01-26 13:02:00,43.8,39.9,29.98,SSE,154,7.0,11.0,86,0.08,,,0.40,Wunderground v.1.15,2013-01-26 21:02:00,
2013-01-26 13:07:00,43.8,39.9,29.99,WSW,249,7.0,11.0,86,0.07,,,0.40,Wunderground v.1.15,2013-01-26 21:07:00,
2013-01-26 13:12:00,43.8,39.9,29.98,SSW,192,2.0,11.0,86,0.04,,,0.40,Wunderground v.1.15,2013-01-26 21:12:00,
2013-01-26 13:18:00,43.9,40.3,29.98,SSW,201,1.0,11.0,87,0.04,,,0.41,Wunderground v.1.15,2013-01-26 21:18:00,
2013-01-26 13:23:00,44.0,40.4,29.98,SW,221,1.0,11.0,87,0.04,,,0.41,Wunderground v.1.15,2013-01-26 21:23:00,
2013-01-26 13:28:00,44.1,40.5,29.98,SSW,213,2.0,11.0,87,0.04,,,0.41,Wunderground v.1.15,2013-01-26 21:28:00,
2013-01-26 13:33:00,44.2,40.6,29.98,SW,224,1.0,8.0,87,0.00,,,0.41,Wunderground v.1.15,2013-01-26 21:33:00,
2013-01-26 13:38:00,44.3,40.7,29.98,SSW,193,0.0,10.0,87,0.00,,,0.41,Wunderground v.1.15,2013-01-26 21:38:00,
2013-01-26 13:43:00,44.4,40.5,29.98,West,277,3.0,9.0,86,0.00,,,0.42,Wunderground v.1.15,2013-01-26 21:43:00,
2013-01-26 13:48:00,44.4,40.5,29.98,WSW,250,2.0,10.0,86,0.00,,,0.42,Wunderground v.1.15,2013-01-26 21:48:00,
2013-01-26 13:53:00,44.3,40.1,29.98,West,277,3.0,10.0,85,0.00,,,0.42,Wunderground v.1.15,2013-01-26 21:53:00,
2013-01-26 13:58:00,44.2,40.0,29.98,WSW,254,7.0,12.0,85,0.00,,,0.42,Wunderground v.1.15,2013-01-26 21:58:00,
2013-01-26 14:03:00,44.3,40.4,29.98,SSW,205,0.0,5.0,86,0.00,,,0.42,Wunderground v.1.15,2013-01-26 22:03:00,
2013-01-26 14:08:00,44.4,40.2,29.98,WSW,244,0.0,9.0,85,0.00,,,0.42,Wunderground v.1.15,2013-01-26 22:08:00,
2013-01-26 14:13:00,44.5,40.3,29.98,WSW,257,0.0,7.0,85,0.00,,,0.42,Wunderground v.1.15,2013-01-26 22:13:00,
2013-01-26 14:18:00,44.6,40.4,29.98,WSW,244,4.0,7.0,85,0.00,,,0.42,Wunderground v.1.15,2013-01-26 22:18:00,
2013-01-26 14:23:00,44.5,40.0,29.98,WSW,253,0.0,11.0,84,0.00,,,0.42,Wunderground v.1.15,2013-01-26 22:23:00,
2013-01-26 14:28:00,44.4,39.9,29.98,SW,219,2.0,11.0,84,0.00,,,0.42,Wunderground v.1.15,2013-01-26 22:28:00,
2013-01-26 14:33:00,44.3,39.8,29.98,SW,215,2.0,13.0,84,0.00,,,0.42,Wunderground v.1.15,2013-01-26 22:33:00,
2013-01-26 14:38:00,44.3,39.8,29.98,SW,226,2.0,13.0,84,0.00,,,0.42,Wunderground v.1.15,2013-01-26 22:38:00,
2013-01-26 14:43:00,44.3,39.8,29.98,WSW,247,1.0,7.0,84,0.00,,,0.42,Wunderground v.1.15,2013-01-26 22:43:00,
2013-01-26 14:48:00,44.4,39.9,29.98,SW,215,2.0,10.0,84,0.00,,,0.42,Wunderground v.1.15,2013-01-26 22:48:00,
2013-01-26 14:53:00,44.3,39.5,29.99,WSW,238,9.0,11.0,83,0.00,,,0.42,Wunderground v.1.15,2013-01-26 22:53:00,
2013-01-26 14:58:00,44.3,39.5,29.99,SW,215,8.0,13.0,83,0.00,,,0.42,Wunderground v.1.15,2013-01-26 22:58:00,
2013-01-26 15:03:00,44.3,39.5,29.99,West,267,3.0,10.0,83,0.00,,,0.42,Wunderground v.1.15,2013-01-26 23:03:00,
2013-01-26 15:08:00,44.2,39.4,29.99,SSW,205,6.0,10.0,83,0.00,,,0.42,Wunderground v.1.15,2013-01-26 23:08:00,
2013-01-26 15:14:00,44.1,39.3,29.99,WSW,252,4.0,8.0,83,0.00,,,0.42,Wunderground v.1.15,2013-01-26 23:14:00,
2013-01-26 15:19:00,44.1,39.6,29.99,SW,217,2.0,8.0,84,0.00,,,0.42,Wunderground v.1.15,2013-01-26 23:19:00,
2013-01-26 15:24:00,44.1,39.6,29.99,WSW,242,1.0,9.0,84,0.00,,,0.42,Wunderground v.1.15,2013-01-26 23:24:00,
2013-01-26 15:29:00,44.1,39.6,30.00,SW,222,7.0,9.0,84,0.00,,,0.42,Wunderground v.1.15,2013-01-26 23:29:00,
2013-01-26 15:34:00,44.1,39.6,29.99,SSW,204,0.0,6.0,84,0.00,,,0.42,Wunderground v.1.15,2013-01-26 23:34:00,
2013-01-26 15:39:00,44.1,39.6,29.99,West,259,5.0,13.0,84,0.00,,,0.42,Wunderground v.1.15,2013-01-26 23:39:00,
2013-01-26 15:44:00,44.1,39.6,29.99,SSW,201,0.0,4.0,84,0.00,,,0.42,Wunderground v.1.15,2013-01-26 23:44:00,
2013-01-26 15:49:00,44.2,39.4,29.99,WSW,240,3.0,10.0,83,0.00,,,0.42,Wunderground v.1.15,2013-01-26 23:49:00,
2013-01-26 15:54:00,44.2,39.4,29.99,SW,218,2.0,10.0,83,0.00,,,0.42,Wunderground v.1.15,2013-01-26 23:54:00,
2013-01-26 15:59:00,44.2,39.1,30.00,SW,219,5.0,10.0,82,0.00,,,0.42,Wunderground v.1.15,2013-01-26 23:59:00,
2013-01-26 16:04:00,44.2,39.4,30.00,WSW,242,4.0,7.0,83,0.00,,,0.42,Wunderground v.1.15,2013-01-27 00:04:00,
2013-01-26 16:09:00,44.3,39.5,30.00,SW,223,0.0,7.0,83,0.00,,,0.42,Wunderground v.1.15,2013-01-27 00:09:00,
2013-01-26 16:14:00,44.3,39.2,30.00,SW,225,1.0,5.0,82,0.00,,,0.42,Wunderground v.1.15,2013-01-27 00:14:00,
2013-01-26 16:19:00,44.3,39.2,30.00,SSW,205,0.0,5.0,82,0.00,,,0.42,Wunderground v.1.15,2013-01-27 00:19:00,
2013-01-26 16:24:00,44.2,39.1,30.00,SSW,206,1.0,4.0,82,0.00,,,0.42,Wunderground v.1.15,2013-01-27 00:24:00,
2013-01-26 16:29:00,44.2,39.1,30.00,SSW,202,0.0,1.0,82,0.00,,,0.42,Wunderground v.1.15,2013-01-27 00:29:00,
2013-01-26 16:34:00,44.2,39.4,30.00,SSW,205,2.0,3.0,83,0.00,,,0.42,Wunderground v.1.15,2013-01-27 00:34:00,
2013-01-26 16:39:00,44.2,39.4,30.00,SSW,201,0.0,0.0,83,0.00,,,0.42,Wunderground v.1.15,2013-01-27 00:39:00,
2013-01-26 16:44:00,44.1,39.6,30.00,SSW,200,0.0,5.0,84,0.00,,,0.42,Wunderground v.1.15,2013-01-27 00:44:00,
2013-01-26 16:49:00,44.1,39.6,30.00,SSW,205,0.0,1.0,84,0.00,,,0.42,Wunderground v.1.15,2013-01-27 00:49:00,
2013-01-26 16:54:00,44.0,39.5,30.01,SSW,209,1.0,6.0,84,0.00,,,0.42,Wunderground v.1.15,2013-01-27 00:54:00,
2013-01-26 16:59:00,43.8,39.0,30.01,WSW,244,0.0,2.0,83,0.00,,,0.43,Wunderground v.1.15,2013-01-27 00:59:00,
2013-01-26 17:04:00,43.8,39.3,30.01,WSW,242,0.0,2.0,84,0.00,,,0.43,Wunderground v.1.15,2013-01-27 01:04:00,
2013-01-26 17:09:00,43.7,39.5,30.01,SSW,209,6.0,6.0,85,0.00,,,0.43,Wunderground v.1.15,2013-01-27 01:09:00,
2013-01-26 17:14:00,43.6,39.1,30.02,West,266,11.0,11.0,84,0.00,,,0.43,Wunderground v.1.15,2013-01-27 01:14:00,
2013-01-26 17:19:00,43.5,38.7,30.02,WNW,282,2.0,4.0,83,0.00,,,0.43,Wunderground v.1.15,2013-01-27 01:19:00,
2013-01-26 17:25:00,43.4,38.6,30.02,WSW,252,4.0,9.0,83,0.00,,,0.43,Wunderground v.1.15,2013-01-27 01:25:00,
2013-01-26 17:30:00,43.4,38.6,30.02,West,275,3.0,9.0,83,0.00,,,0.43,Wunderground v.1.15,2013-01-27 01:30:00,
2013-01-26 17:35:00,43.4,38.9,30.02,WSW,250,0.0,9.0,84,0.00,,,0.43,Wunderground v.1.15,2013-01-27 01:35:00,
2013-01-26 17:40:00,43.4,38.9,30.02,West,265,0.0,5.0,84,0.00,,,0.43,Wunderground v.1.15,2013-01-27 01:40:00,
2013-01-26 17:45:00,43.4,38.9,30.02,WSW,242,5.0,6.0,84,0.00,,,0.43,Wunderground v.1.15,2013-01-27 01:45:00,
2013-01-26 17:50:00,43.3,38.8,30.02,WSW,243,5.0,5.0,84,0.00,,,0.43,Wunderground v.1.15,2013-01-27 01:50:00,
2013-01-26 17:55:00,43.3,38.8,30.02,SW,226,3.0,6.0,84,0.00,,,0.43,Wunderground v.1.15,2013-01-27 01:55:00,
2013-01-26 18:00:00,43.3,38.8,30.02,WSW,247,1.0,6.0,84,0.00,,,0.43,Wunderground v.1.15,2013-01-27 02:00:00,
2013-01-26 18:05:00,43.2,38.7,30.02,SW,236,0.0,9.0,84,0.00,,,0.43,Wunderground v.1.15,2013-01-27 02:05:00,
2013-01-26 18:10:00,43.2,39.0,30.02,West,269,1.0,3.0,85,0.00,,,0.43,Wunderground v.1.15,2013-01-27 02:10:00,
2013-01-26 18:15:00,43.2,39.0,30.02,WSW,254,2.0,6.0,85,0.00,,,0.43,Wunderground v.1.15,2013-01-27 02:15:00,
2013-01-26 18:20:00,43.1,38.9,30.03,West,262,0.0,2.0,85,0.00,,,0.43,Wunderground v.1.15,2013-01-27 02:20:00,
2013-01-26 18:25:00,43.1,38.9,30.03,West,263,6.0,7.0,85,0.00,,,0.43,Wunderground v.1.15,2013-01-27 02:25:00,
2013-01-26 18:30:00,43.1,38.9,30.03,SW,231,3.0,5.0,85,0.00,,,0.43,Wunderground v.1.15,2013-01-27 02:30:00,
2013-01-26 18:35:00,43.1,38.9,30.03,NE,38,4.0,11.0,85,0.00,,,0.43,Wunderground v.1.15,2013-01-27 02:35:00,
2013-01-26 18:40:00,43.1,38.6,30.03,WSW,254,4.0,5.0,84,0.00,,,0.43,Wunderground v.1.15,2013-01-27 02:40:00,
2013-01-26 18:45:00,43.2,39.0,30.03,WSW,241,0.0,5.0,85,0.00,,,0.43,Wunderground v.1.15,2013-01-27 02:45:00,
2013-01-26 18:50:00,43.1,38.9,30.03,West,261,5.0,5.0,85,0.00,,,0.43,Wunderground v.1.15,2013-01-27 02:50:00,
2013-01-26 18:55:00,43.1,38.9,30.03,WSW,248,1.0,6.0,85,0.00,,,0.43,Wunderground v.1.15,2013-01-27 02:55:00,
2013-01-26 19:00:00,43.1,38.6,30.04,West,259,7.0,7.0,84,0.00,,,0.43,Wunderground v.1.15,2013-01-27 03:00:00,
2013-01-26 19:05:00,43.0,38.5,30.04,West,279,6.0,9.0,84,0.00,,,0.43,Wunderground v.1.15,2013-01-27 03:05:00,
2013-01-26 19:10:00,42.9,38.4,30.04,WSW,239,4.0,4.0,84,0.00,,,0.43,Wunderground v.1.15,2013-01-27 03:10:00,
2013-01-26 19:15:00,42.8,38.3,30.04,West,280,6.0,12.0,84,0.00,,,0.43,Wunderground v.1.15,2013-01-27 03:15:00,
2013-01-26 19:20:00,42.7,38.2,30.04,SW,229,7.0,11.0,84,0.00,,,0.43,Wunderground v.1.15,2013-01-27 03:20:00,
2013-01-26 19:25:00,42.6,38.1,30.04,WSW,252,5.0,15.0,84,0.00,,,0.43,Wunderground v.1.15,2013-01-27 03:25:00,
2013-01-26 19:30:00,42.5,38.0,30.04,West,270,4.0,10.0,84,0.00,,,0.43,Wunderground v.1.15,2013-01-27 03:30:00,
2013-01-26 19:35:00,42.4,37.9,30.04,West,269,8.0,12.0,84,0.00,,,0.43,Wunderground v.1.15,2013-01-27 03:35:00,
2013-01-26 19:40:00,42.3,37.8,30.04,SW,218,0.0,5.0,84,0.00,,,0.43,Wunderground v.1.15,2013-01-27 03:40:00,
2013-01-26 19:45:00,42.3,37.8,30.05,WNW,282,2.0,8.0,84,0.00,,,0.43,Wunderground v.1.15,2013-01-27 03:45:00,
2013-01-26 19:50:00,42.2,37.7,30.05,SW,231,3.0,7.0,84,0.00,,,0.43,Wunderground v.1.15,2013-01-27 03:50:00,
2013-01-26 19:55:00,42.2,37.7,30.04,SW,234,3.0,7.0,84,0.00,,,0.43,Wunderground v.1.15,2013-01-27 03:55:00,
2013-01-26 20:00:00,42.2,38.0,30.05,WSW,242,2.0,6.0,85,0.00,,,0.43,Wunderground v.1.15,2013-01-27 04:00:00,
2013-01-26 20:05:00,42.2,38.0,30.05,WSW,243,2.0,6.0,85,0.00,,,0.43,Wunderground v.1.15,2013-01-27 04:05:00,
2013-01-26 20:10:00,42.2,38.0,30.05,WSW,242,1.0,2.0,85,0.00,,,0.43,Wunderground v.1.15,2013-01-27 04:10:00,
2013-01-26 20:15:00,42.2,38.0,30.06,WSW,240,0.0,4.0,85,0.00,,,0.43,Wunderground v.1.15,2013-01-27 04:15:00,
2013-01-26 20:20:00,42.2,38.0,30.06,WSW,240,0.0,0.0,85,0.00,,,0.43,Wunderground v.1.15,2013-01-27 04:20:00,
2013-01-26 20:25:00,42.2,38.0,30.05,West,266,3.0,10.0,85,0.00,,,0.43,Wunderground v.1.15,2013-01-27 04:25:00,
2013-01-26 20:30:00,42.2,38.0,30.06,WSW,246,0.0,2.0,85,0.00,,,0.43,Wunderground v.1.15,2013-01-27 04:30:00,
2013-01-26 20:35:00,42.2,37.7,30.06,SW,221,3.0,12.0,84,0.00,,,0.43,Wunderground v.1.15,2013-01-27 04:35:00,
2013-01-26 20:40:00,42.2,37.7,30.06,West,268,3.0,6.0,84,0.00,,,0.43,Wunderground v.1.15,2013-01-27 04:40:00,
2013-01-26 20:45:00,42.2,37.7,30.06,SW,231,3.0,7.0,84,0.00,,,0.43,Wunderground v.1.15,2013-01-27 04:45:00,
2013-01-26 20:50:00,42.2,37.7,30.06,WSW,248,6.0,9.0,84,0.00,,,0.43,Wunderground v.1.15,2013-01-27 04:50:00,
2013-01-26 20:56:00,42.2,37.7,30.06,WSW,246,2.0,10.0,84,0.00,,,0.43,Wunderground v.1.15,2013-01-27 04:56:00,
2013-01-26 21:00:00,42.1,37.6,30.06,WSW,252,0.0,3.0,84,0.00,,,0.43,Wunderground v.1.15,2013-01-27 05:00:00,
2013-01-26 21:01:00,42.1,37.6,30.06,WSW,249,0.0,3.0,84,0.00,,,0.43,Wunderground v.1.15,2013-01-27 05:01:00,
2013-01-26 21:02:00,42.1,37.6,30.06,West,260,3.0,5.0,84,0.00,,,0.43,Wunderground v.1.15,2013-01-27 05:02:00,
2013-01-26 21:07:00,42.1,37.6,30.06,WSW,249,1.0,10.0,84,0.00,,,0.43,Wunderground v.1.15,2013-01-27 05:07:00,
2013-01-26 21:12:00,42.0,37.8,30.06,West,278,9.0,9.0,85,0.00,,,0.43,Wunderground v.1.15,2013-01-27 05:12:00,
2013-01-26 21:17:00,42.0,37.8,30.06,West,259,2.0,10.0,85,0.00,,,0.43,Wunderground v.1.15,2013-01-27 05:17:00,
2013-01-26 21:22:00,42.0,37.8,30.07,SW,234,2.0,9.0,85,0.00,,,0.43,Wunderground v.1.15,2013-01-27 05:22:00,
2013-01-26 21:27:00,41.9,37.7,30.07,WSW,257,3.0,9.0,85,0.00,,,0.43,Wunderground v.1.15,2013-01-27 05:27:00,
2013-01-26 21:32:00,41.9,37.7,30.07,West,265,2.0,6.0,85,0.00,,,0.43,Wunderground v.1.15,2013-01-27 05:32:00,
2013-01-26 21:37:00,41.9,37.7,30.07,WSW,244,1.0,6.0,85,0.00,,,0.43,Wunderground v.1.15,2013-01-27 05:37:00,
2013-01-26 21:42:00,41.8,37.6,30.07,WSW,242,2.0,7.0,85,0.00,,,0.43,Wunderground v.1.15,2013-01-27 05:42:00,
2013-01-26 21:47:00,41.8,37.6,30.07,WSW,248,2.0,7.0,85,0.00,,,0.43,Wunderground v.1.15,2013-01-27 05:47:00,
2013-01-26 21:52:00,41.8,37.6,30.07,SW,233,0.0,5.0,85,0.00,,,0.43,Wunderground v.1.15,2013-01-27 05:52:00,
2013-01-26 21:57:00,41.8,37.6,30.07,SW,227,0.0,5.0,85,0.00,,,0.43,Wunderground v.1.15,2013-01-27 05:57:00,
2013-01-26 22:02:00,41.8,37.6,30.07,SW,228,0.0,2.0,85,0.00,,,0.43,Wunderground v.1.15,2013-01-27 06:02:00,
2013-01-26 22:07:00,41.7,37.5,30.07,WSW,252,3.0,5.0,85,0.00,,,0.43,Wunderground v.1.15,2013-01-27 06:07:00,
2013-01-26 22:12:00,41.7,37.5,30.08,WSW,244,0.0,6.0,85,0.00,,,0.43,Wunderground v.1.15,2013-01-27 06:12:00,
2013-01-26 22:17:00,41.7,37.5,30.08,WSW,244,0.0,6.0,85,0.00,,,0.43,Wunderground v.1.15,2013-01-27 06:17:00,
2013-01-26 22:22:00,41.7,37.5,30.08,WSW,244,3.0,6.0,85,0.00,,,0.43,Wunderground v.1.15,2013-01-27 06:22:00,
2013-01-26 22:27:00,41.6,37.1,30.08,WSW,243,0.0,6.0,84,0.00,,,0.43,Wunderground v.1.15,2013-01-27 06:27:00,
2013-01-26 22:32:00,41.6,37.1,30.08,WSW,241,0.0,4.0,84,0.00,,,0.43,Wunderground v.1.15,2013-01-27 06:32:00,
2013-01-26 22:37:00,41.6,37.1,30.08,WSW,241,0.0,4.0,84,0.00,,,0.43,Wunderground v.1.15,2013-01-27 06:37:00,
2013-01-26 22:42:00,41.6,37.1,30.09,WSW,241,0.0,0.0,84,0.00,,,0.43,Wunderground v.1.15,2013-01-27 06:42:00,
2013-01-26 22:47:00,41.6,37.1,30.09,WSW,240,5.0,5.0,84,0.00,,,0.43,Wunderground v.1.15,2013-01-27 06:47:00,
2013-01-26 22:52:00,41.6,37.1,30.09,SW,231,1.0,3.0,84,0.00,,,0.43,Wunderground v.1.15,2013-01-27 06:52:00,
2013-01-26 22:57:00,41.6,37.1,30.09,West,259,0.0,5.0,84,0.00,,,0.43,Wunderground v.1.15,2013-01-27 06:57:00,
2013-01-26 23:02:00,41.6,37.4,30.09,SW,225,0.0,5.0,85,0.00,,,0.43,Wunderground v.1.15,2013-01-27 07:02:00,
2013-01-26 23:07:00,41.5,37.3,30.09,WSW,240,3.0,7.0,85,0.00,,,0.43,Wunderground v.1.15,2013-01-27 07:07:00,
2013-01-26 23:13:00,41.5,37.3,30.09,WSW,242,0.0,3.0,85,0.00,,,0.43,Wunderground v.1.15,2013-01-27 07:13:00,
2013-01-26 23:18:00,41.5,37.3,30.09,SW,228,1.0,5.0,85,0.00,,,0.43,Wunderground v.1.15,2013-01-27 07:18:00,
2013-01-26 23:23:00,41.5,37.3,30.09,SSW,211,0.0,5.0,85,0.00,,,0.43,Wunderground v.1.15,2013-01-27 07:23:00,
2013-01-26 23:28:00,41.5,37.3,30.09,SSW,210,0.0,5.0,85,0.00,,,0.43,Wunderground v.1.15,2013-01-27 07:28:00,
2013-01-26 23:33:00,41.5,37.3,30.09,SSW,209,0.0,0.0,85,0.00,,,0.43,Wunderground v.1.15,2013-01-27 07:33:00,
2013-01-26 23:38:00,41.5,37.3,30.09,SSW,209,0.0,0.0,85,0.00,,,0.43,Wunderground v.1.15,2013-01-27 07:38:00,
2013-01-26 23:43:00,41.5,37.6,30.09,SSW,208,0.0,0.0,86,0.00,,,0.43,Wunderground v.1.15,2013-01-27 07:43:00,
2013-01-26 23:48:00,41.4,37.5,30.09,SSW,208,0.0,0.0,86,0.00,,,0.43,Wunderground v.1.15,2013-01-27 07:48:00,
2013-01-26 23:53:00,41.4,37.5,30.10,SSW,208,0.0,0.0,86,0.00,,,0.43,Wunderground v.1.15,2013-01-27 07:53:00,
2013-01-26 23:58:00,41.4,37.5,30.10,SSW,208,0.0,0.0,86,0.00,,,0.43,Wunderground v.1.15,2013-01-27 07:58:00,